#timestamp,LO_Frequency,Hit,StdDev 
1536411615.2,286046998.4,N
1536411635.0,286046998.7,N
1536411635.9,286046998.7,N
1536411655.8,286046996.5,Y
1536411675.6,286046998.1,P
1536411695.5,286046998.8,P
1536411715.3,286047002.2,P
1536411735.1,286047001.8,N
1536411755.9,286047001.9,N
1536411775.7,286047001.6,N
1536411795.5,286047004.3,N
1536411815.4,286047002.4,N
1536411835.2,286047000.7,N
1536411855.1,286047000.7,N
1536411856.0,286047000.7,N
1536411875.8,286047000.3,N
1536411895.6,286046998.2,N
1536411915.5,286047000.3,N
1536411935.3,286047001.0,N
1536411955.2,286047001.2,N
1536411975.9,286046998.9,N
1536411995.7,286046999.4,N
1536412015.6,286046999.4,N
1536412035.4,286047000.6,N
1536412055.2,286047000.5,N
1536412075.1,286047001.1,N
1536412076.0,286047001.1,N
1536412095.8,286046998.8,N
1536412115.7,286047000.8,N
1536412135.5,286047000.4,N
1536412155.3,286046999.9,N
1536412175.2,286047002.3,N
1536412195.0,286047001.6,N
1536412195.9,286047001.6,N
1536412215.7,286047002.6,N
1536412235.6,286046999.7,N
1536412255.4,286047002.5,N
1536412275.3,286047002.1,N
1536412295.1,286047001.5,N
1536412296.0,286047001.5,N
1536412315.8,286047002.2,N
1536412335.7,286047001.4,N
1536412355.5,286047004.0,Y
1536412375.3,286047001.4,P
1536412395.2,286047002.6,P
1536412415.0,286047002.3,N
1536412415.9,286047002.3,Y
1536412435.8,286047000.3,P
1536412455.6,286047000.2,N
1536412475.4,286047002.7,P
1536412495.3,286047002.4,N
1536412515.1,286047002.2,N
1536412535.9,286047002.4,N
1536412555.7,286046999.7,N
1536412575.5,286046999.7,N
1536412595.4,286047000.1,N
1536412615.2,286046999.9,N
1536412635.0,286046999.8,N
1536412635.9,286046999.8,N
1536412655.8,286047000.1,N
1536412675.6,286047002.4,N
1536412695.5,286047002.8,N
1536412715.3,286047002.6,N
1536412735.1,286047002.7,N
1536412755.9,286047002.4,N
1536412775.7,286047002.2,N
1536412795.5,286047001.6,N
1536412815.4,286047002.6,N
1536412835.2,286047002.0,N
1536412855.1,286047002.2,N
1536412856.0,286047002.2,N
1536412875.8,286047002.1,N
1536412895.6,286047001.9,N
1536412915.5,286047003.9,Y
1536412935.3,286047000.6,P
1536412955.2,286047000.9,N
1536412975.9,286047001.2,P
1536412995.7,286046996.5,Y
1536413015.6,286046997.8,P
1536413035.4,286046997.7,N
1536413055.2,286046996.7,N
1536413075.1,286046999.6,N
1536413076.0,286046999.6,N
1536413095.8,286046997.5,N
1536413115.7,286046997.3,N
1536413135.5,286046997.6,N
1536413155.3,286046995.2,Y
1536413175.2,286046999.6,P
1536413195.0,286046997.2,P
1536413195.9,286046997.2,N
1536413215.8,286046996.5,Y
1536413235.6,286047001.2,P
1536413255.4,286047001.0,N
1536413275.3,286046998.4,N
1536413295.1,286046998.1,N
1536413315.9,286047000.6,N
1536413335.7,286047002.8,N
1536413355.5,286047002.4,N
1536413375.4,286047002.2,N
1536413395.2,286047001.9,N
1536413415.0,286047003.2,N
1536413415.9,286047003.2,N
1536413435.8,286047003.7,N
1536413455.6,286047004.4,N
1536413475.5,286047004.1,N
1536413495.3,286047003.2,N
1536413515.1,286047002.9,N
1536413535.9,286047003.4,N
1536413555.7,286047005.6,N
1536413575.5,286047002.9,N
1536413595.4,286047005.3,N
1536413615.2,286047005.6,N
1536413635.1,286047006.0,N
1536413636.0,286047006.0,N
1536413655.8,286047005.5,N
1536413675.6,286047005.7,N
1536413695.5,286047005.2,N
1536413715.3,286047005.2,N
1536413735.2,286047005.1,N
1536413755.9,286047005.8,N
1536413775.7,286047003.5,N
1536413795.6,286047003.6,N
1536413815.4,286047004.1,N
1536413835.2,286047003.8,N
1536413855.1,286047003.2,N
1536413856.0,286047003.2,N
1536413875.8,286047003.2,N
1536413895.7,286047002.9,N
1536413915.5,286047003.5,N
1536413935.3,286047003.9,Y
1536413955.2,286046998.9,P
1536413975.0,286046999.3,N
1536413975.9,286046999.3,N
1536413995.8,286046998.6,N
1536414015.6,286046998.1,N
1536414035.4,286046998.8,N
1536414055.3,286046999.3,N
1536414075.1,286046998.6,N
1536414095.8,286046998.2,N
1536414115.7,286046998.1,N
1536414135.5,286046998.9,N
1536414155.4,286046999.5,N
1536414175.2,286046999.0,N
1536414195.0,286046999.6,N
1536414195.9,286046999.6,N
1536414215.8,286046997.0,N
1536414235.6,286046997.5,N
1536414255.4,286046997.3,N
1536414275.3,286046997.0,N
1536414295.1,286046997.0,N
1536414315.9,286046997.4,N
1536414335.7,286046996.6,N
1536414355.5,286046997.7,N
1536414375.4,286046997.4,N
1536414395.2,286046995.0,Y
1536414415.0,286046996.6,P
1536414415.9,286046996.6,P
1536414435.8,286046996.6,P
1536414455.6,286046997.0,Y
1536414475.5,286047000.0,P
1536414495.3,286047000.7,N
1536414515.1,286047000.1,N
1536414535.9,286047002.6,N
1536414555.7,286047000.1,N
1536414575.6,286047000.7,N
1536414595.4,286046998.3,N
1536414615.2,286046998.4,N
1536414635.1,286046998.8,N
1536414636.0,286046998.8,N
1536414655.8,286046997.0,N
1536414675.6,286046999.4,N
1536414695.5,286046998.8,N
1536414715.3,286046999.3,N
1536414735.2,286046998.1,N
1536414755.9,286046998.3,N
1536414775.7,286046998.3,N
1536414795.6,286046998.7,N
1536414815.4,286047000.8,N
1536414835.2,286046998.6,N
1536414855.1,286046998.1,N
1536414856.0,286046998.1,N
1536414875.8,286047000.3,N
1536414895.7,286047000.4,N
1536414915.5,286046999.9,N
1536414935.3,286047002.8,N
1536414955.2,286047002.6,N
1536414975.0,286047002.7,N
1536414975.9,286047002.7,N
1536414995.7,286046999.8,N
1536415015.6,286047000.0,N
1536415035.4,286046999.8,N
1536415055.3,286047001.0,N
1536415075.1,286047000.6,N
1536415076.0,286047000.6,N
1536415095.8,286046998.2,N
1536415115.7,286047001.0,N
1536415135.5,286046998.1,N
1536415155.3,286047000.3,N
1536415175.2,286047000.4,N
1536415195.0,286046999.8,N
1536415195.9,286046999.8,N
